Caribou, ME

12:16 PM EDT on March 29, 2017 (GMT -0400)
Caribou Municipal

Weather History for KCAR - January, 2014

Change the Weather History Date:

Thursday, January 23, 2014

  Actual Average Record
Temperature  
Mean Temperature 2 °F 9 °F  
Max Temperature 8 °F 19 °F 42 °F (1957)
Min Temperature -4 °F 0 °F -26 °F (1954)
Degree Days  
Heating Degree Days 63 56  
Month to date heating degree days 1172 1261  
Since 1 July heating degree days 4737 4855  
Cooling Degree Days 0 0  
Month to date cooling degree days 0 0  
Year to date cooling degree days 0 0  
Moisture  
Dew Point -7 °F    
Average Humidity 67    
Maximum Humidity 79    
Minimum Humidity 55    
Precipitation  
Precipitation 0.00 in 0.09 in 0.66 in (1987)
Month to date precipitation 3.08 2.04  
Year to date precipitation 3.08 2.04  
Snow  
Snow 0.00 in 0.80 in 7.90 in (1963)
Month to date snowfall 4.2 18.7  
Since 1 July snowfall 59.1 53.8  
Snow Depth 10.00 in    
Sea Level Pressure  
Sea Level Pressure 29.84 in    
Wind  
Wind Speed 10 mph (NW)    
Max Wind Speed 17 mph    
Max Gust Speed 22 mph    
Visibility 10 miles    
Events      
T = Trace of Precipitation, MM = Missing Value Source: NWS Daily Summary

Daily Weather History Graph

Daily Weather History Graph

Search for Another Location

Airport or City:

Trip Planner

Search our weather history database for the weather conditions in past years. The results will help you decide how hot, cold, wet, or windy it might be!

Date:

Astronomy

Jan. 23, 2014 Rise Set
Actual Time 7:06 AM EST 4:21 PM EST
Civil Twilight 6:33 AM EST 4:55 PM EST
Nautical Twilight 5:56 AM EST 5:32 PM EST
Astronomical Twilight 5:20 AM EST 6:08 PM EST
Moon No Moon Rise 10:10 AM EST (1/23)
Length of Visible Light 10h 21m
Length of Day
9h 15m
Waning Gibbous, 55% of the Moon is Illuminated
Jan 23
Waning Gibbous
Jan 24
Last Quarter
Jan 30
New
Feb 6
First Quarter
Feb 14
Full

Hourly Weather History & Observations

Time (EST) Temp. Windchill Dew Point Humidity Pressure Visibility Wind Dir Wind Speed Gust Speed Precip Events Conditions
12:54 AM 1.9 °F -16.2 °F -5.1 °F 72% 29.73 in 10.0 mi WNW 13.8 mph - N/A   Overcast
1:54 AM 3.0 °F -12.5 °F -4.0 °F 73% 29.75 in 10.0 mi WNW 10.4 mph - N/A   Overcast
2:54 AM 3.0 °F -13.3 °F -4.0 °F 73% 29.76 in 10.0 mi WNW 11.5 mph 18.4 mph N/A   Overcast
3:54 AM 1.9 °F -16.9 °F -4.0 °F 76% 29.77 in 10.0 mi NW 15.0 mph 19.6 mph N/A   Overcast
4:54 AM -0.0 °F -15.3 °F -7.1 °F 72% 29.78 in 10.0 mi WNW 9.2 mph - N/A   Mostly Cloudy
5:07 AM -0.9 °F -15.3 °F -8.0 °F 72% 29.72 in 10.0 mi WNW 8.1 mph - N/A   Scattered Clouds
5:54 AM -2.0 °F -18.7 °F -9.0 °F 72% 29.81 in 10.0 mi NW 10.4 mph - N/A   Scattered Clouds
6:54 AM -2.0 °F -18.7 °F -9.0 °F 72% 29.82 in 10.0 mi NW 10.4 mph 19.6 mph N/A   Mostly Cloudy
7:19 AM -2.9 °F -18.8 °F -9.9 °F 72% 29.76 in 10.0 mi NW 9.2 mph - N/A   Scattered Clouds
7:54 AM -2.0 °F -21.2 °F -9.0 °F 72% 29.83 in 10.0 mi NW 13.8 mph 19.6 mph N/A   Partly Cloudy
8:54 AM -0.9 °F -19.1 °F -9.0 °F 69% 29.85 in 10.0 mi NW 12.7 mph 21.9 mph N/A   Partly Cloudy
9:54 AM 1.0 °F -18.0 °F -9.0 °F 63% 29.86 in 10.0 mi NNW 15.0 mph - N/A   Partly Cloudy
10:54 AM 1.9 °F -14.7 °F -8.0 °F 63% 29.84 in 10.0 mi NW 11.5 mph - N/A   Partly Cloudy
11:54 AM 3.9 °F -13.0 °F -7.1 °F 60% 29.82 in 10.0 mi NW 12.7 mph - N/A   Clear
12:54 PM 6.1 °F -9.5 °F -7.1 °F 55% 29.81 in 10.0 mi NW 11.5 mph 18.4 mph N/A   Clear
1:54 PM 8.1 °F -3.2 °F -5.1 °F 55% 29.81 in 10.0 mi Variable 6.9 mph - N/A   Clear
2:54 PM 8.1 °F -7.0 °F -5.1 °F 55% 29.83 in 10.0 mi NW 11.5 mph - N/A   Clear
3:54 PM 7.0 °F -8.3 °F -6.0 °F 55% 29.86 in 10.0 mi NW 11.5 mph - N/A   Clear
4:54 PM 3.0 °F -12.5 °F -7.1 °F 63% 29.89 in 10.0 mi NNW 10.4 mph - N/A   Clear
5:54 PM 1.0 °F -12.9 °F -8.0 °F 66% 29.91 in 10.0 mi NNW 8.1 mph - N/A   Clear
6:54 PM 1.0 °F -14.0 °F -8.0 °F 66% 29.93 in 10.0 mi NNW 9.2 mph - N/A   Clear
7:54 PM -0.9 °F -12.7 °F -8.0 °F 72% 29.94 in 10.0 mi NW 5.8 mph - N/A   Clear
8:54 PM -4.0 °F -16.3 °F -9.0 °F 79% 29.95 in 10.0 mi West 5.8 mph - N/A   Scattered Clouds
9:54 PM -2.9 °F -13.3 °F -8.0 °F 79% 29.96 in 10.0 mi West 4.6 mph - N/A   Overcast
10:54 PM -0.9 °F -16.4 °F -8.0 °F 72% 29.97 in 10.0 mi WNW 9.2 mph - N/A   Overcast
11:54 PM -0.9 °F -16.4 °F -8.0 °F 72% 29.98 in 10.0 mi WNW 9.2 mph - N/A   Overcast